sat.trackr.live / text

‹ back to catalog

AEHF-1 (USA 214)

NORAD 36868 · 2010-039A

PAYLOAD ACTIVE UNKNOWN

§ Identity

Operator
Country
US
Launch date
2010-08-14
Launch site
AFETR
Launch vehicle
Mass (kg)
RCS (m²)
7.94

Purposes: comms

External: N2YO · Heavens-Above · Gunter

§ Orbital elements

Epoch: 2026-09-15T13:53:45.354624Z

Period
1,436.00 min
Inclination
8.4444°
Eccentricity
0.0003671
Mean motion
1.00278769 rev/d
Perigee alt
35,769.2 km
Apogee alt
35,800.1 km
Semi-major
42,162.8 km
B*
0.0000e+0
RAAN
66.8540°
Arg perigee
94.6069°
Mean anomaly
71.6036°
Rev number
5,456

§ Raw data

AEHF-1 (USA 214)1 36868U 10039A   26258.57899716  .00000143  00000+0  00000+0 0  99952 36868   8.4444  66.8540 0003671  94.6069  71.6036  1.00278769 54560

JSON: /api/v1/satellites/36868 · /tle

For live sub-satellite position, see the globe view (requires WebGL).

§ Visibility from observer

Set your observer location to see the next 7 days of passes ≥ 10°. The values pass through the URL so the page stays shareable.

No JS? Fill the form by hand. The geolocation button needs JavaScript.